This demonstration page uses our WeatherBlox Daily Observations layout. Learn more.

Left ArrowRight Arrow

39.95238, -75.16362

Hourly Observations for February 10, 2017

Temp ( °F °C ) Dew Point ( °F °C ) Humidity (%) Winds ( mph kmh ) Pressure ( in mb ) Visibility ( mi km ) Precip ( " mm )
12:54 am 00:54 Cloudy 25 -3.9 11 -11.7 55 55 W 12 19 30.19 1022 10 16 0.00 0.00
1:54 am 01:54 Mostly Cloudy 25 -3.9 7 -13.9 46 46 W 16 26 30.20 1023 10 16 0.00 0.00
2:54 am 02:54 Mostly Clear 24 -4.4 7 -13.9 48 48 W 15 24 30.23 1024 10 16 0.00 0.00
3:54 am 03:54 Mostly Clear 24 -4.4 12 -11.1 60 60 W 10 17 30.26 1025 10 16 0.00 0.00
4:54 am 04:54 Mostly Clear 23 -5 9 -12.8 55 55 W 10 17 30.28 1026 10 16 0.00 0.00
5:54 am 05:54 Partly Cloudy 23 -5 8 -13.3 53 53 W 12 19 30.31 1026 10 16 0.00 0.00
6:54 am 06:54 Partly Cloudy 23 -5 9 -12.8 55 55 WSW 10 17 30.32 1027 10 16 0.00 0.00
7:54 am 07:54 Partly Cloudy 24 -4.4 10 -12.2 55 55 W 17 28 30.34 1027 10 16 0.00 0.00
8:54 am 08:54 Mostly Sunny 25 -3.9 9 -12.8 50 50 W 18 30 30.34 1028 10 16 0.00 0.00
9:54 am 09:54 Mostly Sunny 27 -2.8 9 -12.8 46 46 W 13 20 30.35 1028 10 16 0.00 0.00
10:54 am 10:54 Mostly Cloudy 28 -2.2 11 -11.7 49 49 W 21 33 30.35 1028 10 16 0.00 0.00
11:54 am 11:54 Mostly Cloudy 29 -1.7 12 -11.1 49 49 W 20 31 30.35 1028 10 16 0.00 0.00
12:54 pm 12:54 Mostly Cloudy 29 -1.7 11 -11.7 47 47 W 12 19 30.31 1026 10 16 0.00 0.00
1:54 pm 13:54 Mostly Cloudy 31 -0.6 11 -11.7 43 43 W 16 26 30.29 1026 10 16 0.00 0.00
2:54 pm 14:54 Mostly Cloudy 32 0 11 -11.7 41 41 W 14 22 30.29 1026 10 16 0.00 0.00
3:54 pm 15:54 Cloudy 32 0 12 -11.1 43 43 W 14 22 30.27 1025 10 16 0.00 0.00
4:54 pm 16:54 Cloudy 32 0 11 -11.7 41 41 W 10 17 30.25 1025 10 16 0.00 0.00
5:54 pm 17:54 Mostly Cloudy 32 0 12 -11.1 43 43 W 8 13 30.24 1024 10 16 0.00 0.00
6:54 pm 18:54 Cloudy 33 0.6 14 -10 45 45 SSW 5 7 30.21 1023 10 16 0.00 0.00
7:54 pm 19:54 Mostly Cloudy 32 0 14 -10 47 47 SSE 7 11 30.17 1022 10 16 0.00 0.00
8:54 pm 20:54 Cloudy 33 0.6 14 -10 45 45 S 9 15 30.16 1021 10 16 0.00 0.00
9:54 pm 21:54 Cloudy 33 0.6 16 -8.9 49 49 S 9 15 30.13 1020 10 16 0.00 0.00
10:54 pm 22:54 Cloudy 33 0.6 18 -7.8 54 54 SE 6 9 30.10 1019 10 16 0.00 0.00
11:54 pm 23:54 Cloudy 33 0.6 20 -6.7 58 58 SE 5 7 30.08 1019 10 16 0.00 0.00

Powered by AerisWeather